When you browse on this site, cookies collect data to enhance your experience and personalize the content and advertising you see.
Visit our Privacy Policy to learn more. By continuing to use the site, you agree to this use of cookies and data.
  • In Hungary
  • List of Countries
  • For 7 days
  • Water Temperature
  • Satellite Maps
  • Weather Map
  • News
  • Weather Widgets
  • user-avatar
    Login

    Hourly Weather Camargo

    Today, 24 June, Monday

    Time Temperature Precipitation Wind Pressure Humidity
    00:00 +19°C° 0 mm 1 mps 750 mmHg 99%
    01:00 +19°C° 0 mm 1 mps 750 mmHg 98%
    02:00 +19°C° 0 mm 1 mps 750 mmHg 97%
    03:00 +19°C° 0 mm 1 mps 750 mmHg 96%
    04:00 +20°C° 0 mm 1 mps 750 mmHg 96%
    05:00 +20°C° 0 mm 1 mps 750 mmHg 95%
    06:00 +20°C° 0 mm 1 mps 750 mmHg 92%
    07:00 +21°C° 0 mm 2 mps 750 mmHg 83%
    08:00 +24°C° 0 mm 2 mps 750 mmHg 74%
    09:00 +26°C° 0 mm 2 mps 749 mmHg 65%
    10:00 +26°C° 0 mm 2 mps 749 mmHg 64%
    11:00 +27°C° 0 mm 2 mps 749 mmHg 62%
    12:00 +27°C° 0 mm 2 mps 750 mmHg 60%
    13:00 +26°C° 0.1 mm 3 mps 750 mmHg 64%
    14:00 +25°C° 0.1 mm 4 mps 750 mmHg 68%
    15:00 +23°C° 0.1 mm 5 mps 750 mmHg 72%
    16:00 +22°C° 0 mm 4 mps 750 mmHg 74%
    17:00 +23°C° 0 mm 2 mps 750 mmHg 75%
    18:00 +22°C° 0 mm 1 mps 751 mmHg 77%
    19:00 +21°C° 0.1 mm 1 mps 751 mmHg 80%
    20:00 +20°C° 0.1 mm 2 mps 752 mmHg 84%
    21:00 +19°C° 0.1 mm 2 mps 752 mmHg 88%
    22:00 +19°C° 0 mm 2 mps 752 mmHg 88%
    23:00 +19°C° 0 mm 2 mps 752 mmHg 89%

    Tomorrow, 25 June, Tuesday

    Time Temperature Precipitation Wind Pressure Humidity
    00:00 +18°C° 0 mm 2 mps 752 mmHg 90%
    01:00 +19°C° 0 mm 1 mps 752 mmHg 92%
    02:00 +18°C° 0 mm 1 mps 752 mmHg 94%
    03:00 +16°C° 0 mm 0 mps 752 mmHg 97%
    04:00 +16°C° 0 mm 0 mps 752 mmHg 96%
    05:00 +17°C° 0 mm 0 mps 752 mmHg 94%
    06:00 +17°C° 0 mm 0 mps 752 mmHg 93%
    07:00 +18°C° 0 mm 0 mps 752 mmHg 89%
    08:00 +21°C° 0 mm 1 mps 752 mmHg 85%
    09:00 +22°C° 0 mm 1 mps 753 mmHg 81%
    10:00 +24°C° 0 mm 2 mps 753 mmHg 73%
    11:00 +26°C° 0 mm 2 mps 752 mmHg 64%
    12:00 +29°C° 0 mm 3 mps 752 mmHg 56%
    13:00 +28°C° 0.1 mm 3 mps 752 mmHg 61%
    14:00 +27°C° 0.1 mm 3 mps 752 mmHg 65%
    15:00 +26°C° 0.1 mm 3 mps 752 mmHg 69%
    16:00 +25°C° 0.2 mm 3 mps 752 mmHg 75%
    17:00 +24°C° 0.2 mm 2 mps 752 mmHg 81%
    18:00 +23°C° 0.2 mm 2 mps 752 mmHg 87%
    19:00 +22°C° 0.4 mm 1 mps 753 mmHg 91%
    20:00 +21°C° 0.4 mm 1 mps 753 mmHg 95%
    21:00 +18°C° 0.4 mm 0 mps 753 mmHg 99%
    22:00 +18°C° 0.1 mm 0 mps 753 mmHg 99%
    23:00 +18°C° 0.1 mm 0 mps 753 mmHg 99%

    Day after tomorrow, 26 June, Wednesday

    Time Temperature Precipitation Wind Pressure Humidity
    00:00 +18°C° 0.1 mm 0 mps 753 mmHg 99%
    01:00 +18°C° 0.1 mm 0 mps 752 mmHg 99%
    02:00 +18°C° 0.1 mm 0 mps 752 mmHg 98%
    03:00 +18°C° 0.1 mm 0 mps 752 mmHg 98%
    04:00 +18°C° 0 mm 0 mps 752 mmHg 97%
    05:00 +18°C° 0 mm 0 mps 752 mmHg 95%
    06:00 +21°C° 0 mm 1 mps 751 mmHg 94%
    07:00 +24°C° 0 mm 1 mps 751 mmHg 82%
    08:00 +27°C° 0 mm 1 mps 751 mmHg 69%
    09:00 +30°C° 0 mm 1 mps 751 mmHg 57%
    10:00 +32°C° 0 mm 2 mps 751 mmHg 50%
    11:00 +36°C° 0 mm 2 mps 751 mmHg 43%
    12:00 +38°C° 0 mm 3 mps 751 mmHg 35%
    13:00 +37°C° 0 mm 3 mps 750 mmHg 37%
    14:00 +37°C° 0 mm 3 mps 750 mmHg 38%
    15:00 +37°C° 0 mm 2 mps 750 mmHg 40%
    16:00 +33°C° 0.2 mm 3 mps 750 mmHg 55%
    17:00 +28°C° 0.2 mm 3 mps 750 mmHg 71%
    18:00 +24°C° 0.2 mm 3 mps 750 mmHg 87%
    19:00 +22°C° 0.3 mm 3 mps 750 mmHg 91%
    20:00 +21°C° 0.3 mm 3 mps 751 mmHg 94%
    21:00 +20°C° 0.3 mm 3 mps 751 mmHg 98%
    22:00 +19°C° 0 mm 2 mps 752 mmHg 97%
    23:00 +19°C° 0 mm 2 mps 752 mmHg 97%

    27 June, Thursday

    Time Temperature Precipitation Wind Pressure Humidity
    00:00 +19°C° 0 mm 2 mps 752 mmHg 97%
    01:00 +19°C° 0 mm 2 mps 752 mmHg 96%
    02:00 +20°C° 0 mm 1 mps 752 mmHg 94%
    03:00 +20°C° 0 mm 1 mps 752 mmHg 92%
    04:00 +21°C° 0 mm 1 mps 752 mmHg 89%
    05:00 +21°C° 0 mm 1 mps 752 mmHg 85%
    06:00 +22°C° 0 mm 1 mps 752 mmHg 81%
    07:00 +25°C° 0 mm 1 mps 752 mmHg 71%
    08:00 +28°C° 0 mm 1 mps 752 mmHg 60%
    09:00 +31°C° 0 mm 1 mps 752 mmHg 49%
    10:00 +33°C° 0 mm 1 mps 752 mmHg 43%
    11:00 +36°C° 0 mm 2 mps 752 mmHg 38%
    12:00 +38°C° 0 mm 2 mps 752 mmHg 32%
    13:00 +35°C° 0 mm 3 mps 751 mmHg 42%
    14:00 +31°C° 0 mm 3 mps 751 mmHg 52%
    15:00 +28°C° 0 mm 3 mps 751 mmHg 62%
    16:00 +27°C° 0 mm 3 mps 751 mmHg 68%
    17:00 +26°C° 0 mm 3 mps 751 mmHg 73%
    18:00 +24°C° 0 mm 3 mps 751 mmHg 79%
    19:00 +22°C° 0 mm 3 mps 752 mmHg 85%
    20:00 +20°C° 0 mm 3 mps 752 mmHg 92%
    21:00 +19°C° 0 mm 3 mps 753 mmHg 98%
    22:00 +19°C° 0 mm 2 mps 753 mmHg 97%
    23:00 +19°C° 0 mm 2 mps 753 mmHg 96%

    28 June, Friday

    Time Temperature Precipitation Wind Pressure Humidity
    00:00 +19°C° 0 mm 2 mps 754 mmHg 95%
    01:00 +19°C° 0 mm 2 mps 753 mmHg 96%
    02:00 +19°C° 0 mm 2 mps 753 mmHg 97%
    03:00 +18°C° 0 mm 2 mps 753 mmHg 97%
    04:00 +19°C° 0 mm 2 mps 753 mmHg 96%
    05:00 +19°C° 0 mm 2 mps 753 mmHg 94%
    06:00 +20°C° 0 mm 1 mps 753 mmHg 93%
    07:00 +21°C° 0 mm 2 mps 753 mmHg 83%
    08:00 +24°C° 0 mm 2 mps 753 mmHg 73%
    09:00 +27°C° 0 mm 2 mps 753 mmHg 64%
    10:00 +27°C° 0 mm 2 mps 753 mmHg 62%
    11:00 +28°C° 0 mm 2 mps 752 mmHg 60%
    12:00 +28°C° 0 mm 2 mps 752 mmHg 59%
    13:00 +28°C° 0 mm 2 mps 752 mmHg 60%
    14:00 +28°C° 0 mm 2 mps 752 mmHg 61%
    15:00 +27°C° 0 mm 2 mps 751 mmHg 63%
    16:00 +26°C° 0 mm 2 mps 751 mmHg 68%
    17:00 +25°C° 0 mm 2 mps 751 mmHg 73%
    18:00 +24°C° 0 mm 2 mps 751 mmHg 79%
    19:00 +21°C° 0 mm 2 mps 751 mmHg 85%
    20:00 +20°C° 0 mm 2 mps 752 mmHg 91%
    21:00 +19°C° 0 mm 2 mps 752 mmHg 96%
    22:00 +19°C° 0 mm 2 mps 752 mmHg 95%
    23:00 +19°C° 0 mm 2 mps 752 mmHg 94%

    29 June, Saturday

    Time Temperature Precipitation Wind Pressure Humidity
    00:00 +19°C° 0 mm 2 mps 752 mmHg 93%
    01:00 +19°C° 0 mm 2 mps 752 mmHg 93%
    02:00 +20°C° 0 mm 1 mps 752 mmHg 93%
    03:00 +19°C° 0 mm 1 mps 751 mmHg 93%
    04:00 +19°C° 0 mm 2 mps 751 mmHg 93%
    05:00 +19°C° 0 mm 2 mps 752 mmHg 93%
    06:00 +19°C° 0 mm 2 mps 752 mmHg 93%
    07:00 +20°C° 0 mm 2 mps 752 mmHg 88%
    08:00 +20°C° 0 mm 2 mps 752 mmHg 84%
    09:00 +21°C° 0 mm 2 mps 752 mmHg 80%
    10:00 +24°C° 0 mm 2 mps 752 mmHg 73%
    11:00 +26°C° 0 mm 2 mps 752 mmHg 67%
    12:00 +28°C° 0 mm 2 mps 752 mmHg 60%
    13:00 +27°C° 0 mm 2 mps 752 mmHg 61%
    14:00 +27°C° 0 mm 2 mps 752 mmHg 62%
    15:00 +26°C° 0 mm 3 mps 752 mmHg 63%
    16:00 +25°C° 0 mm 2 mps 752 mmHg 66%
    17:00 +24°C° 0 mm 2 mps 752 mmHg 69%
    18:00 +23°C° 0 mm 2 mps 752 mmHg 72%
    19:00 +20°C° 0.1 mm 2 mps 753 mmHg 79%
    20:00 +19°C° 0.1 mm 2 mps 753 mmHg 87%
    21:00 +18°C° 0.1 mm 1 mps 754 mmHg 94%
    22:00 +18°C° 0.2 mm 1 mps 754 mmHg 94%
    23:00 +19°C° 0.2 mm 1 mps 753 mmHg 94%
    Show more